Temperature
20 21 21 21 23 24 23 22 23 22 22 21 21 21 22 21 21 20 17 17 17 17 16 17 17 17 17 17 17 17 17 17 17 17 17 17 17 17 17 17 17 17 17 18 18 18 18 18 18
20 21 21 22 24 23 22 22 22 22 21 21 21 21 21 20 18 18 17 17 17 16 16 16 17 17 17 17 17 17 17 17 17 17 17 17 17 17 17 17 17 17 17 18 18 17 18 18 18
21 21 22 24 24 23 22 22 22 21 21 21 21 20 20 19 18 17 17 17 17 16 16 16 17 17 17 17 17 17 17 17 17 17 17 17 17 17 17 17 17 17 17 17 17 17 17 17 18
21 21 23 24 23 22 23 22 22 22 21 21 21 20 19 17 17 17 17 17 17 16 16 16 17 17 17 17 17 17 17 17 17 17 17 17 17 17 17 17 17 17 17 17 17 17 17 17 17
21 23 24 23 22 22 23 22 22 23 22 21 21 21 19 17 17 17 17 17 17 16 16 16 17 17 17 17 17 17 17 17 17 17 17 17 17 17 17 17 17 17 17 17 17 17 17 17 17
22 24 24 23 22 23 23 22 23 23 22 21 21 21 18 17 17 17 17 17 17 17 16 17 17 17 17 17 17 17 17 17 17 17 17 17 17 17 17 17 17 17 17 17 17 17 17 17 17
23 24 23 23 22 22 23 22 23 23 22 21 21 21 19 17 17 17 17 17 17 17 16 17 17 17 17 17 17 17 17 17 17 17 17 17 17 17 17 17 17 17 17 17 17 17 17 17 17
22 24 23 23 23 22 22 22 22 22 22 20 20 21 20 18 17 17 17 17 17 17 17 17 17 17 17 17 17 17 17 17 17 17 17 17 17 17 16 16 17 17 17 17 17 17 17 17 17
22 24 23 23 23 23 22 22 21 21 21 20 20 20 19 18 17 17 17 17 17 17 17 17 17 17 17 17 17 17 16 16 16 16 16 16 16 16 16 16 17 17 17 17 17 17 17 16 16
23 24 23 23 23 23 22 22 22 22 22 21 20 18 18 18 17 18 18 18 17 17 17 17 17 17 17 17 17 16 16 16 16 16 16 16 16 16 16 16 16 16 16 16 16 16 16 16 16
24 23 23 22 22 22 22 22 22 23 23 22 21 19 18 18 18 18 18 18 18 17 17 17 17 17 17 17 17 16 16 16 16 16 16 16 16 16 16 16 16 16 16 16 16 16 16 16 16
23 23 22 22 22 22 22 22 22 22 22 21 20 19 18 18 18 18 18 18 18 17 17 17 17 17 17 17 17 16 16 16 16 16 16 16 16 16 16 16 16 16 16 16 16 16 16 16 16
23 23 22 22 21 22 22 22 22 21 20 20 19 19 19 19 18 18 18 18 18 17 17 17 17 17 17 17 17 16 16 16 16 16 16 16 16 16 16 16 16 16 16 16 16 16 15 16 15
23 22 22 22 22 22 22 22 22 21 20 20 20 19 19 19 19 19 18 18 18 18 17 17 17 17 17 17 16 16 16 16 16 16 16 16 16 16 16 16 16 16 16 16 16 16 15 15 15
22 23 23 22 23 22 22 22 22 21 20 20 20 19 19 19 18 19 19 18 18 18 17 17 17 17 17 16 16 16 16 16 16 16 16 16 16 16 16 16 16 16 16 16 16 15 15 15 15
23 23 23 23 23 22 23 22 22 20 20 20 20 20 19 19 19 19 18 18 18 18 17 17 17 17 17 17 16 16 16 16 16 16 16 16 16 16 16 15 15 15 15 15 15 15 15 15 15
23 23 23 23 23 23 23 22 22 20 20 20 20 20 19 19 19 19 18 18 18 18 17 17 17 17 17 17 16 16 16 16 16 16 16 15 15 15 15 15 15 15 15 15 15 15 15 15 15
23 23 23 23 23 23 23 23 23 21 20 21 20 20 20 19 19 19 18 18 18 17 17 17 17 17 17 16 16 16 16 16 16 15 15 15 15 15 15 15 15 15 15 15 15 15 15 15 15
23 23 23 23 23 23 23 23 23 21 21 21 21 20 20 20 19 19 18 18 18 17 17 17 17 17 16 16 16 16 16 15 15 15 15 15 15 15 15 15 15 15 15 15 15 15 15 15 15
23 23 23 23 23 23 23 23 23 22 21 20 21 20 20 20 19 19 18 18 18 17 17 17 17 17 16 16 16 16 15 15 15 15 15 15 15 15 15 15 15 15 15 15 15 15 15 15 15
23 23 23 23 23 23 23 23 23 23 21 20 20 20 20 19 19 19 18 18 18 17 17 17 17 17 17 16 16 16 16 15 15 15 15 15 15 15 15 15 15 15 15 15 15 15 15 15 15
23 23 23 22 23 23 23 23 23 23 22 21 20 20 19 19 19 19 18 18 18 18 17 17 17 16 16 16 16 16 16 15 15 15 15 15 15 15 15 15 15 15 15 15 15 14 14 15 14
23 22 22 22 23 23 23 23 24 23 22 22 21 20 19 19 19 19 18 18 18 17 17 17 17 17 16 16 16 16 16 15 15 15 15 15 15 15 15 15 15 15 14 14 14 14 14 14 14
22 22 22 22 23 22 22 23 23 23 22 22 22 20 19 19 19 18 18 18 18 17 17 17 17 17 16 16 16 16 16 15 15 15 15 15 15 15 15 15 15 15 14 14 14 14 14 14 14
22 22 22 22 22 22 22 22 22 23 22 22 21 20 19 19 18 18 18 17 17 17 17 17 17 17 16 16 16 16 16 15 15 15 15 15 15 15 15 15 14 14 14 14 14 14 14 14 14
22 23 22 21 22 22 22 22 23 22 21 21 20 20 19 19 18 18 18 17 17 17 17 17 17 16 16 16 16 16 16 15 15 15 15 15 15 15 15 14 14 14 14 14 14 14 14 14 14
22 22 23 22 22 22 22 22 22 22 21 21 20 19 19 18 18 18 17 17 17 17 17 17 17 16 16 16 16 16 16 16 15 15 15 15 15 15 14 14 14 14 14 14 14 14 14 14 14
22 22 22 22 21 21 22 22 22 21 21 21 20 20 19 18 18 17 17 17 17 17 17 17 17 16 16 16 16 16 16 16 15 15 15 15 15 15 14 14 14 14 14 14 14 14 14 14 14
21 21 22 22 22 21 21 22 22 22 21 21 20 19 18 18 18 17 17 17 17 17 17 17 17 16 16 16 16 16 16 16 16 15 15 15 15 15 14 14 14 14 14 14 14 14 14 13 13
21 21 21 21 21 21 21 22 22 21 21 20 19 19 18 18 17 17 17 17 17 17 17 16 16 16 16 16 16 16 16 16 16 15 15 15 15 15 14 14 14 14 14 14 14 13 13 13 13
Wind_Speed
1 1 1 2 1 4 7 5 4 5 5 6 6 6 7 7 6 5 3 4 4 5 6 7 9 9 9 10 10 10 11 11 11 11 11 11 11 11 10 10 11 11 11 11 11 11 11 11 11
2 1 1 1 1 5 6 5 7 7 5 5 5 6 7 7 6 5 4 4 5 6 7 9 10 10 11 11 10 11 11 11 10 10 11 11 11 10 10 11 11 11 11 11 11 11 11 11 11
0 1 1 1 4 5 6 6 7 7 5 3 4 5 5 5 5 4 4 5 6 7 8 11 11 11 11 11 10 10 10 10 10 10 10 11 11 11 11 11 12 12 12 12 11 11 11 12 11
1 1 1 4 10 7 6 6 5 6 5 4 4 6 5 5 3 5 6 5 7 7 8 11 11 11 11 10 10 10 10 10 10 10 10 10 11 11 11 11 12 12 12 12 11 11 11 11 11
1 0 4 7 8 7 6 5 3 4 4 4 4 6 6 5 5 7 6 6 7 7 8 10 10 11 11 10 10 10 10 11 11 11 11 11 11 11 11 12 12 12 12 12 12 11 12 12 11
0 1 5 8 8 7 6 5 4 6 6 6 5 6 6 5 6 6 6 6 6 6 7 8 9 10 10 11 10 10 10 11 11 11 11 11 11 11 11 12 12 12 12 12 12 12 12 12 12
2 3 6 8 8 7 5 4 4 5 6 5 3 5 6 6 5 6 6 6 5 5 5 6 7 8 9 10 10 10 10 10 10 10 11 11 11 11 11 11 11 11 11 11 12 12 12 12 12
2 3 7 7 7 6 5 4 4 4 5 4 2 4 6 7 7 7 6 6 5 4 4 5 6 6 6 8 9 9 10 10 9 9 9 8 9 10 9 10 11 11 11 12 12 12 12 12 12
0 3 6 6 5 6 5 4 4 3 5 5 4 5 7 11 9 8 7 6 5 4 4 4 5 5 5 6 6 6 7 7 5 7 7 5 7 8 8 12 10 11 11 12 12 12 11 10 12
1 5 6 4 4 6 5 4 4 4 5 5 6 7 9 11 9 8 7 6 5 4 4 3 4 4 4 5 5 5 5 6 6 7 7 6 7 8 8 10 10 10 9 11 10 8 7 5 8
3 6 6 5 5 5 5 4 2 3 4 4 6 9 10 10 9 7 6 5 4 4 3 3 3 3 3 3 4 4 4 5 5 6 7 6 6 6 6 6 6 7 6 8 7 6 7 8 8
6 7 5 5 4 4 4 3 3 2 3 3 5 9 11 10 8 7 6 5 4 3 2 2 2 2 3 3 3 3 4 4 4 5 6 5 4 4 5 4 5 5 6 6 6 5 7 8 8
7 6 5 5 4 4 4 3 2 2 2 4 7 9 9 9 8 6 5 5 4 3 3 2 2 2 2 3 2 3 3 3 4 4 4 4 4 4 4 5 5 5 5 5 5 6 7 7 8
6 6 5 4 4 3 3 2 2 2 4 6 8 8 8 7 6 6 6 5 4 4 3 3 3 2 2 2 2 3 3 3 3 3 3 4 4 3 3 4 4 4 4 4 5 6 5 6 7
6 6 4 3 2 2 3 2 2 3 5 6 7 7 7 7 6 6 6 5 5 4 4 3 3 3 3 3 3 3 3 3 3 3 3 4 4 3 4 4 4 4 4 4 4 6 5 5 6
4 3 3 3 2 2 4 1 2 4 5 6 6 7 7 7 7 6 5 5 5 4 4 4 4 4 3 3 3 3 3 4 3 3 3 3 4 4 4 3 3 4 3 3 4 4 4 5 5
4 3 3 3 2 2 3 2 2 4 5 6 6 7 7 7 7 7 6 6 5 5 5 5 5 4 4 4 4 3 3 3 3 3 3 3 4 4 3 3 3 4 3 3 3 3 3 5 5
4 3 2 2 2 3 4 4 2 4 5 6 6 7 7 7 8 7 6 6 6 6 6 5 6 5 5 4 3 3 3 3 3 3 2 3 3 3 4 3 3 3 3 3 3 4 4 4 4
2 3 2 1 1 3 5 5 3 4 5 6 7 7 8 8 7 6 6 7 7 7 6 7 6 6 5 4 3 3 2 2 2 2 2 2 2 3 3 2 3 2 2 2 3 4 4 3 3
4 5 4 2 1 4 4 5 3 4 6 6 7 8 8 8 8 7 7 7 8 8 7 7 7 7 6 4 3 2 2 2 2 2 2 2 2 3 2 2 2 2 2 2 3 3 2 2 1
5 5 4 4 3 4 5 4 3 3 5 5 6 7 8 8 9 9 8 7 8 8 8 7 7 7 6 5 4 3 3 2 2 2 2 2 2 3 2 2 2 2 2 2 2 2 2 2 1
5 3 5 5 6 3 4 4 1 2 4 4 4 5 7 8 9 8 9 8 9 8 8 8 8 7 7 6 5 5 3 3 2 2 2 2 3 3 2 2 2 2 2 2 1 1 1 1 1
2 1 4 5 6 6 5 5 2 2 2 3 4 4 5 7 8 9 9 9 8 8 8 7 8 7 7 6 6 5 4 3 3 3 3 3 3 3 3 2 2 2 1 2 1 0 0 1 1
3 4 4 5 6 6 4 6 2 0 2 3 2 3 4 6 7 8 8 8 7 8 8 7 7 7 7 7 6 6 4 4 4 4 4 3 3 2 3 2 2 1 1 1 1 1 0 0 0
5 5 4 4 4 3 1 4 2 2 2 3 2 1 2 4 6 7 8 8 8 9 9 8 8 7 7 7 7 6 5 5 5 4 4 3 3 2 2 2 2 2 1 1 1 1 1 1 1
5 6 4 3 4 2 3 4 1 1 2 2 2 1 1 3 4 6 7 7 8 9 9 9 9 8 7 7 7 6 5 4 4 4 4 3 3 3 3 3 3 3 2 2 2 1 1 1 1
4 5 5 6 6 6 4 3 2 2 0 1 1 2 1 1 3 5 5 6 7 8 9 9 9 8 8 8 8 6 5 5 4 4 4 3 3 3 3 3 3 3 2 2 2 1 1 1 1
4 3 4 5 5 5 5 5 3 2 1 1 1 1 1 1 2 4 4 5 6 7 8 8 8 8 8 7 7 6 6 6 5 5 5 4 4 4 4 4 3 3 3 3 2 2 2 2 2
5 6 6 5 6 6 5 2 1 1 1 2 3 2 1 1 1 3 4 4 5 6 7 8 8 8 7 7 7 7 6 6 6 5 5 5 4 4 4 4 4 4 3 3 3 3 3 2 2
6 7 8 7 7 7 7 4 2 2 1 2 3 3 2 2 2 3 4 4 4 5 6 7 8 8 7 7 7 7 7 7 6 6 6 6 5 5 5 5 4 4 4 4 4 3 3 3 2
Wind_Direction
308 322 280 256 182 87 75 68 72 88 70 62 63 65 67 52 43 72 79 63 56 61 57 68 64 68 69 69 69 72 70 70 72 75 75 76 76 79 79 79 79 79 77 74 69 68 68 70 70
344 315 259 266 104 98 81 79 80 74 91 96 73 68 72 69 61 85 93 75 68 69 60 69 69 69 68 66 66 69 69 69 71 73 73 75 77 78 77 77 79 77 76 73 69 67 69 69 68
332 294 329 54 73 78 94 87 89 87 84 82 79 59 56 66 72 87 90 97 83 74 67 71 68 68 66 64 63 66 68 69 71 74 74 74 75 74 72 74 76 75 73 71 69 69 69 68 67
254 198 96 88 86 72 87 101 107 108 86 65 91 84 76 53 63 89 106 100 89 81 72 69 63 65 64 65 64 64 67 68 69 72 72 72 74 74 71 73 75 73 71 69 69 71 70 69 67
267 153 114 101 89 88 91 90 107 100 92 84 91 95 88 74 81 99 102 94 90 84 73 70 63 60 60 64 64 63 68 68 69 71 70 69 73 75 74 75 73 71 70 68 69 73 73 73 70
153 144 123 108 102 100 95 89 91 91 98 101 99 100 93 102 107 110 108 99 91 88 81 78 74 63 59 61 61 60 64 66 67 69 70 70 73 76 77 75 71 70 71 71 72 75 76 75 70
76 92 107 114 114 107 96 84 74 87 93 87 99 107 117 125 119 121 117 107 96 88 84 80 80 84 80 67 57 56 60 64 65 67 69 70 73 77 78 77 72 72 71 71 74 77 78 76 72
57 117 118 118 120 107 105 97 75 68 86 95 102 111 128 142 139 131 122 117 106 93 84 78 77 70 70 76 69 58 58 61 64 68 71 79 90 88 85 84 74 73 73 72 76 79 80 79 74
221 128 120 118 117 114 123 111 88 89 107 106 92 81 111 136 142 140 133 124 112 100 91 82 82 75 69 66 74 72 71 63 75 85 80 84 83 86 89 73 73 73 74 77 79 81 84 90 86
99 114 104 100 106 116 120 104 113 130 118 119 119 111 124 142 148 147 142 131 122 111 100 94 85 77 71 67 68 60 62 61 59 68 74 72 76 76 79 88 81 80 85 89 83 90 102 89 81
89 101 109 111 111 118 120 111 117 127 105 118 139 144 147 152 157 155 145 134 128 120 106 96 88 80 67 70 60 59 62 65 64 63 76 78 86 90 83 86 93 92 92 83 87 84 69 71 67
107 102 112 118 121 126 120 120 108 89 78 94 132 147 155 162 166 167 160 150 142 130 119 102 83 85 82 73 63 59 62 64 67 60 66 76 79 82 85 81 72 72 76 74 72 74 77 71 70
110 108 107 113 118 118 119 118 108 108 116 125 138 152 160 168 171 173 168 162 156 144 135 126 112 86 78 76 65 67 59 55 76 66 58 71 80 85 90 88 77 70 75 81 77 77 75 71 68
111 117 116 120 127 137 135 138 144 133 146 147 152 161 167 171 178 175 173 171 166 159 152 142 141 132 115 105 91 65 64 68 67 69 61 69 79 85 88 89 81 77 75 74 81 81 81 77 72
128 128 128 136 148 151 170 158 160 147 164 166 169 170 174 179 185 189 183 182 177 171 159 153 147 142 134 114 89 72 63 71 67 63 53 66 66 83 90 89 89 86 89 91 81 86 84 80 81
154 167 159 143 172 186 234 202 137 160 182 184 185 181 186 190 197 196 194 193 184 181 170 160 159 154 140 122 112 98 83 76 69 65 51 62 72 74 82 91 94 94 88 87 88 83 86 86 82
191 178 163 157 181 204 236 263 161 184 200 201 200 196 196 197 202 201 202 198 187 188 184 171 165 160 145 130 123 107 96 87 75 69 63 62 74 79 87 87 95 100 98 91 94 89 88 91 87
170 175 186 197 167 225 246 262 234 202 214 218 211 208 206 206 207 201 199 198 193 191 185 177 165 164 153 150 139 125 107 97 85 73 68 66 76 84 89 92 91 94 105 101 105 103 93 93 95
198 217 235 262 257 259 266 273 262 213 218 227 221 217 215 214 207 200 199 196 194 189 187 181 178 171 166 165 169 157 138 126 108 84 79 83 95 92 91 93 84 85 102 108 117 115 113 103 101
226 238 247 245 244 267 282 278 261 229 222 230 232 225 221 217 207 197 196 196 198 191 190 187 187 182 181 179 173 160 141 129 103 98 83 77 100 97 99 110 108 105 102 113 113 124 124 112 88
233 248 257 268 265 241 271 254 226 213 222 228 234 234 225 217 213 201 195 194 194 194 191 190 189 185 185 178 166 156 152 158 144 130 104 76 90 95 84 91 101 110 129 126 132 141 140 133 118
241 248 255 257 265 265 266 274 242 213 208 224 232 230 226 218 212 205 196 195 196 195 189 192 187 187 184 183 187 186 183 175 163 149 131 123 113 114 105 98 103 117 117 118 140 153 159 202 168
262 201 236 253 265 263 253 266 259 178 238 252 241 232 223 215 209 203 201 197 196 192 186 187 183 186 184 188 190 198 191 173 159 154 143 140 122 120 116 105 110 114 110 107 100 113 237 230 278
185 200 211 231 248 249 256 257 268 225 297 309 272 236 221 207 205 203 198 191 190 185 183 183 181 186 184 188 192 197 189 178 169 169 158 157 143 136 132 132 130 123 111 119 123 133 133 330 4
217 244 244 226 224 244 216 250 258 13 324 316 315 279 220 196 197 196 194 188 186 184 184 184 184 185 188 193 195 195 193 190 187 183 175 174 160 152 146 151 142 137 133 129 130 127 102 105 98
222 248 266 277 272 275 219 245 225 35 335 320 315 348 163 180 190 193 193 190 187 186 186 188 189 189 190 196 199 199 191 195 189 189 183 181 170 160 158 165 159 154 149 144 131 122 104 102 98
222 232 271 278 278 273 239 227 228 209 221 14 24 38 40 168 185 187 185 187 189 189 191 193 193 192 193 197 200 200 199 196 187 187 185 181 174 164 167 168 167 156 155 153 145 129 125 109 98
266 237 229 248 267 264 253 243 233 191 199 48 17 7 11 18 183 179 180 184 190 193 193 194 197 196 196 199 198 194 200 199 198 191 185 183 181 174 174 179 176 171 169 165 155 148 130 132 111
208 221 240 251 259 271 272 253 116 196 258 318 329 346 349 327 198 181 180 182 188 191 192 192 196 199 197 198 198 195 196 197 198 198 194 192 192 189 193 189 185 183 179 172 167 170 160 160 143
247 244 240 251 251 253 271 267 133 191 262 301 306 321 320 304 229 191 183 176 181 188 195 197 198 198 199 199 198 196 193 193 197 200 198 196 195 195 197 191 187 184 184 183 183 180 180 182 178
Height
1518 1517 1517 1518 1518 1518 1526 1528 1525 1527 1528 1531 1531 1530 1531 1533 1536 1544 1544 1541 1541 1540 1539 1537 1536 1536 1536 1536 1536 1536 1536 1535 1535 1535 1535 1534 1534 1534 1533 1533 1533 1533 1533 1533 1532 1532 1532 1531 1531
1519 1518 1520 1519 1517 1525 1531 1529 1529 1530 1532 1534 1534 1534 1534 1538 1540 1542 1543 1542 1542 1542 1540 1539 1538 1538 1538 1538 1538 1538 1538 1537 1537 1537 1537 1536 1536 1536 1536 1535 1535 1535 1535 1534 1534 1534 1533 1533 1532
1519 1519 1522 1518 1520 1526 1532 1531 1531 1533 1534 1534 1535 1536 1538 1541 1543 1544 1544 1543 1544 1543 1543 1541 1541 1540 1540 1540 1540 1540 1540 1539 1539 1538 1538 1538 1538 1538 1538 1537 1537 1537 1537 1536 1536 1535 1535 1534 1534
1521 1522 1522 1521 1528 1530 1529 1531 1533 1534 1536 1536 1536 1539 1541 1544 1544 1545 1545 1545 1545 1545 1545 1544 1543 1543 1543 1543 1542 1542 1542 1541 1541 1540 1540 1540 1540 1539 1539 1539 1539 1539 1538 1538 1537 1537 1536 1536 1536
1522 1522 1521 1526 1530 1531 1532 1533 1534 1533 1535 1537 1538 1540 1543 1546 1545 1546 1546 1547 1547 1547 1547 1546 1546 1545 1545 1545 1544 1544 1544 1543 1543 1542 1542 1542 1542 1541 1541 1541 1541 1541 1540 1540 1539 1539 1538 1538 1537
1524 1521 1523 1530 1533 1532 1534 1535 1535 1535 1537 1539 1540 1541 1545 1547 1547 1547 1547 1548 1549 1549 1549 1548 1548 1547 1547 1547 1547 1546 1546 1545 1545 1545 1544 1544 1543 1543 1543 1543 1543 1543 1542 1542 1541 1541 1540 1539 1539
1525 1522 1526 1530 1533 1534 1536 1537 1536 1536 1537 1540 1541 1542 1546 1548 1548 1549 1549 1549 1550 1550 1551 1551 1551 1550 1549 1549 1548 1548 1548 1547 1547 1547 1546 1546 1545 1545 1545 1545 1545 1545 1544 1544 1543 1543 1542 1541 1541
1525 1525 1528 1530 1534 1536 1537 1538 1539 1538 1540 1542 1543 1542 1546 1549 1549 1550 1550 1551 1551 1552 1552 1553 1552 1552 1552 1552 1550 1550 1549 1549 1549 1548 1548 1547 1548 1547 1547 1547 1547 1547 1546 1546 1545 1545 1544 1543 1543
1526 1526 1530 1532 1534 1535 1537 1538 1540 1541 1541 1543 1544 1545 1547 1548 1549 1551 1552 1553 1553 1553 1554 1554 1554 1554 1554 1553 1552 1552 1551 1551 1551 1550 1550 1550 1551 1550 1550 1549 1549 1549 1548 1548 1547 1546 1546 1545 1545
1527 1528 1532 1533 1533 1535 1538 1539 1540 1541 1541 1543 1545 1546 1547 1549 1550 1552 1553 1553 1554 1554 1555 1555 1555 1555 1555 1554 1554 1554 1554 1553 1553 1553 1552 1552 1552 1552 1552 1551 1551 1550 1550 1550 1549 1549 1548 1548 1548
1528 1530 1533 1535 1536 1537 1538 1540 1541 1540 1540 1542 1544 1546 1548 1550 1551 1552 1553 1554 1555 1555 1555 1556 1556 1556 1556 1556 1555 1555 1555 1554 1554 1554 1554 1553 1553 1554 1553 1553 1553 1553 1553 1552 1552 1551 1551 1551 1549
1531 1534 1535 1536 1538 1538 1539 1540 1541 1541 1543 1544 1545 1547 1548 1550 1551 1553 1554 1555 1555 1556 1556 1556 1557 1557 1557 1556 1556 1556 1556 1556 1556 1555 1555 1555 1555 1555 1555 1555 1555 1555 1555 1554 1554 1553 1553 1552 1552
1532 1535 1537 1538 1539 1540 1540 1541 1542 1543 1544 1545 1546 1547 1549 1550 1552 1553 1554 1555 1556 1556 1556 1556 1557 1557 1558 1557 1557 1557 1557 1557 1557 1556 1556 1556 1556 1556 1556 1556 1556 1556 1556 1556 1555 1555 1554 1554 1554
1535 1536 1537 1539 1539 1540 1540 1541 1542 1543 1544 1545 1546 1547 1549 1550 1552 1553 1554 1555 1555 1556 1557 1557 1557 1558 1558 1558 1558 1558 1557 1557 1557 1557 1557 1557 1557 1557 1557 1557 1557 1557 1557 1557 1557 1556 1556 1555 1555
1536 1536 1537 1538 1539 1540 1540 1540 1541 1543 1544 1545 1546 1547 1549 1550 1551 1553 1554 1555 1555 1556 1557 1557 1558 1558 1558 1558 1558 1558 1558 1558 1558 1558 1558 1558 1558 1558 1558 1558 1558 1558 1558 1558 1558 1558 1557 1557 1556
1534 1535 1538 1538 1538 1539 1541 1541 1541 1543 1543 1544 1545 1547 1548 1549 1551 1552 1553 1554 1555 1556 1557 1557 1557 1558 1558 1559 1558 1558 1558 1558 1558 1558 1558 1559 1559 1559 1558 1559 1559 1559 1559 1559 1559 1559 1559 1558 1558
1533 1536 1537 1537 1537 1537 1538 1539 1539 1542 1542 1543 1544 1545 1547 1548 1550 1551 1552 1553 1554 1555 1556 1557 1557 1558 1558 1558 1559 1559 1559 1559 1559 1559 1559 1559 1559 1559 1559 1559 1559 1559 1559 1560 1560 1560 1560 1559 1559
1536 1535 1536 1536 1535 1536 1536 1536 1537 1540 1541 1541 1542 1544 1545 1546 1548 1549 1551 1552 1553 1554 1555 1556 1557 1558 1558 1558 1559 1559 1559 1559 1559 1559 1559 1559 1559 1559 1559 1559 1560 1560 1560 1560 1560 1560 1560 1560 1560
1532 1534 1535 1534 1534 1535 1535 1535 1535 1537 1539 1539 1540 1541 1542 1544 1546 1548 1549 1550 1551 1553 1554 1555 1556 1557 1557 1558 1558 1559 1559 1559 1559 1559 1559 1559 1559 1559 1559 1560 1560 1560 1560 1560 1561 1561 1561 1561 1561
1533 1534 1534 1534 1534 1534 1533 1533 1532 1534 1536 1537 1538 1539 1540 1542 1544 1545 1546 1548 1550 1551 1553 1554 1555 1556 1556 1557 1558 1558 1559 1559 1559 1559 1559 1559 1559 1559 1559 1560 1560 1560 1560 1560 1561 1561 1561 1561 1561
1533 1533 1533 1534 1533 1533 1533 1531 1529 1530 1533 1535 1536 1536 1537 1539 1541 1542 1544 1546 1547 1549 1551 1552 1553 1555 1555 1556 1557 1557 1558 1558 1559 1558 1558 1558 1559 1559 1559 1559 1560 1560 1560 1561 1560 1561 1561 1562 1562
1533 1531 1532 1533 1534 1532 1532 1534 1526 1526 1529 1531 1532 1534 1534 1536 1538 1540 1541 1543 1545 1547 1549 1551 1552 1553 1554 1555 1556 1557 1558 1558 1558 1558 1558 1558 1558 1559 1559 1559 1560 1560 1561 1561 1561 1561 1561 1561 1562
1531 1532 1532 1532 1532 1532 1530 1531 1525 1523 1526 1527 1529 1531 1532 1533 1535 1537 1539 1541 1543 1545 1547 1549 1551 1552 1553 1554 1555 1556 1557 1558 1558 1558 1558 1559 1559 1559 1559 1559 1560 1560 1560 1560 1560 1561 1561 1561 1562
1532 1532 1531 1530 1529 1536 1530 1531 1528 1522 1524 1524 1526 1528 1529 1531 1533 1535 1537 1539 1541 1543 1545 1547 1548 1550 1552 1553 1554 1555 1556 1557 1557 1558 1558 1559 1559 1559 1559 1559 1560 1560 1560 1560 1560 1561 1561 1561 1561
1531 1532 1536 1536 1536 1533 1528 1529 1526 1521 1523 1524 1525 1526 1527 1529 1531 1533 1535 1536 1538 1540 1542 1544 1546 1548 1550 1552 1553 1554 1555 1556 1557 1557 1558 1558 1559 1559 1559 1559 1559 1560 1560 1560 1560 1560 1561 1561 1561
1529 1529 1537 1541 1537 1529 1528 1528 1522 1522 1524 1525 1525 1526 1526 1527 1529 1530 1532 1534 1536 1538 1540 1542 1544 1546 1548 1550 1552 1553 1554 1555 1556 1556 1557 1558 1558 1558 1558 1559 1559 1559 1559 1560 1560 1560 1560 1560 1560
1528 1528 1526 1530 1530 1533 1525 1523 1521 1521 1522 1524 1525 1525 1526 1526 1528 1529 1531 1532 1535 1537 1538 1540 1543 1544 1546 1548 1550 1551 1553 1554 1555 1555 1556 1557 1557 1558 1558 1558 1558 1559 1559 1559 1559 1559 1560 1560 1560
1528 1526 1529 1531 1537 1537 1528 1524 1522 1520 1521 1522 1524 1525 1525 1526 1527 1528 1529 1531 1533 1535 1537 1539 1541 1542 1544 1546 1548 1549 1551 1552 1553 1554 1555 1556 1556 1557 1557 1557 1558 1558 1558 1558 1558 1559 1559 1559 1559
1530 1530 1527 1527 1528 1534 1533 1525 1515 1518 1520 1522 1523 1524 1525 1525 1526 1527 1528 1529 1531 1533 1535 1537 1538 1541 1542 1544 1546 1547 1549 1550 1551 1552 1553 1554 1555 1555 1556 1556 1557 1557 1557 1557 1557 1558 1558 1558 1558
1526 1525 1526 1532 1530 1528 1530 1525 1515 1518 1520 1522 1523 1523 1524 1524 1525 1525 1527 1528 1529 1531 1533 1534 1536 1538 1540 1541 1543 1545 1546 1548 1549 1550 1551 1552 1553 1554 1554 1555 1555 1556 1556 1556 1556 1556 1557 1557 1557